Location: Home
(42.5358°N, 72.7383°W)
Time: 01:02:33
(UTC-05:00)

Vanguard 1 - Pass Details

Date: 09 December 2021
Orbit: 652 x 3830 km, 34.2° (Epoch: 21 January)

Event Time Altitude Azimuth Distance (km) Brightness Sun altitude
Rises 01:34:22 0° 268° (W) 7,479 - -59.7°
Reaches altitude 10° 01:39:07 10° 266° (W) 6,678 - -58.9°
Maximum altitude 02:02:07 66° 191° (S) 3,910 - -55.2°
Exits shadow 02:07:11 57° 146° (SE) 3,948 12.8 -54.3°
Drops below altitude 10° 02:20:51 10° 115° (ESE) 5,598 14.2 -51.9°
Sets 02:24:25 0° 112° (ESE) 6,275 14.6 -51.3°
